Location: Newark
(44.6394°N, 22.2943°E)
Time: 00:02:43
(UTC+00:00)

FO-29 - Visible Passes

Search period start: 07 December 2023 00:00
Search period end: 17 December 2023 00:00
Orbit: 800 x 1321 km, 98.6° (Epoch: 06 December)

Date Brightness Start Highest point End Pass type
(mag) Time Alt. Az. Time Alt. Az. Time Alt. Az.
07 Dec 11.7 02:03:00 10° N 02:04:58 20° N 02:04:58 20° N visible
07 Dec 11.7 03:49:54 10° NNW 03:51:26 14° NNW 03:51:26 14° NNW visible
08 Dec 12.2 01:07:56 10° NNE 01:09:06 15° NNE 01:09:06 15° NNE visible
08 Dec 11.6 02:53:28 10° N 02:55:34 19° NNW 02:55:34 19° NNW visible
09 Dec 11.8 01:57:53 10° N 01:59:42 19° N 01:59:42 19° N visible
09 Dec 11.7 03:44:36 10° NNW 03:46:11 14° NNW 03:46:11 14° NNW visible
10 Dec 12.2 01:02:51 10° NNE 01:03:51 14° NNE 01:03:51 14° NNE visible
10 Dec 11.7 02:48:18 10° N 02:50:19 19° N 02:50:19 19° N visible
11 Dec 11.9 01:52:45 10° N 01:54:28 18° N 01:54:28 18° N visible
11 Dec 11.7 03:39:20 10° NNW 03:40:56 14° NNW 03:40:56 14° NNW visible
12 Dec 12.3 00:57:48 10° NNE 00:58:36 14° NNE 00:58:36 14° NNE visible
12 Dec 11.7 02:43:08 10° N 02:45:05 18° N 02:45:05 18° N visible
13 Dec 11.9 01:47:39 10° NNE 01:49:13 18° N 01:49:13 18° N visible
13 Dec 11.7 03:34:05 10° N 03:35:42 15° NNW 03:35:42 15° NNW visible
14 Dec 12.4 00:52:44 10° NNE 00:53:22 13° NNE 00:53:22 13° NNE visible
14 Dec 11.7 02:37:59 10° N 02:39:51 18° N 02:39:51 18° N visible
15 Dec 12.0 01:42:33 10° NNE 01:44:00 17° NNE 01:44:00 17° NNE visible
15 Dec 11.8 03:28:53 10° N 03:30:28 15° NNW 03:30:28 15° NNW visible
16 Dec 12.4 00:47:42 10° NNE 00:48:09 12° NNE 00:48:09 12° NNE visible
16 Dec 11.8 02:32:52 10° N 02:34:37 18° N 02:34:37 18° N visible
